Tracking 31027 objects as of 19-Jul-2025
HD Live streaming from Space Station
objects crossing your sky now

KSF3-B

Track KSF3-B now!
10-day predictions


NORAD ID: 55019
Int'l Code: 2023-001L
Perigee: 409.7 km
Apogee: 419.4 km
Inclination: 97.4 °
Period: 92.7 minutes
Semi major axis: 6785 km
RCS: Unknown
Launch date: January 3, 2023
Source: Luxembourg (LUXE)
Launch site: AIR FORCE EASTERN TEST RANGE (AFETR)
Your satellite tracking list
GEOTAIL
Track 1 satellite(s)




NASA's NSSDC Master Catalog

Two Line Element Set (TLE):
1 55019U 23001L   25199.81577036  .00024046  00000-0  38358-3 0  9995
2 55019  97.3709 271.6169 0007099 122.9548 237.2389 15.53192976141777
Source of the keplerian elements: AFSPC